Timeline UpdatesTrip UpdatesNews PostsPvt Posts♥♥Travel TipsAdmin PostsConv PostsFollowed PostsChat RequestsBlog PostsPNR Posts

Disclaimer
Search
 
 
Fri Oct 31, 2014 18:23:38 ISTHomeTrainsΣChainsAtlasPNRForumGalleryNewsFAQTripsMembersLoginFeedback
No Recent News for this Train
Other Trains in the News **new
Latest...
.
Thu Aug 29, 2013 (08:03PM)
⇐ Return Journey: Train# 16317

16318/Himsagar Express

Time-Table HAS CHANGED.
Sep 02 2014 (12:27AM)
Change Departure Station:
Change Arrival Station:
Post a Train Travel TipPost a Train Travel Tip **new
Post a Comment/Question/Picture/VideoPost a Comment/Question/Picture/Video
Pantry/Catering
✓ Pantry Car Avbl
✓ Catering Avbl
Good Food
RSA - Rake Sharing
Rake/Coach Composition
LOCO-SLR-UR-UR-B1-B2-S1-S2-S3-S4-S5-S6-PC-S7*-S8*-S9*-S10*-A1*-UR*-SLR*; * Denotes the TEN-JAT; slip (16788) detached @ED
Loco
JAT to NDLS - TKD WDM 3A/ WDP3A NDLS to CAPE...
Read more...
- RPM WAP 4
News    PNR    Forum    Time-Table    Availability    Fare Chart    Map    Arr/Dep History    Trips    Gallery    ΣChains    X/O    Timeline    
Travel Time: 68h 2m    72 halts    Distance: 3612 km    Avg Speed: 53 km/hr
Type: Mail/Express
Zone: SR/Southern
Departs @ 01:28
Platform# 1
  T    
Chakki Bank/CHKB 
Arrives @ 21:30 +2 nights (Avg 1h 57m late)
Platform# 3
    T  
Kanniyakumari/CAPE 

72 halts. 546 intermediate Stations between Chakki Bank and Kanniyakumari

Show ALL intermediate Stations  Show Old Time-Table

#TrkCodeStation NameX/OArrivesAvgDepartsAvgHaltPFDay#KmSpeedElevZoneAddress
1/--/JATJammu Tawi (3)  -23:45+1:1521-99.365337mNRJammu 180002, Jammu and Kashmir
2/--/SMBXSamba (2)  00:15+1:2800:17+1:312m12-66.764365mNRDist. Samba, Jammu and Kashmir
3/--/KTHUKathua (2)  00:58+1:4001:00+1:412m22-23.150396mNRdistt. kathua, Jammu and Kashmir
4/--/PTKCPathankot Cantt (3)  01:28+1:3901:33+1:405m120.157328mNRPathankot By Pass Ph:0186-2251594, Punjab
5/--/MEXMukerian (3)  02:15+1:3102:17+1:302m1239.953257mNRMukerian distt. hosiharpur, Punjab
6/--/DZADasuya (2)X  02:34+1:3102:36+1:312m1255.058251mNRDasuya distt. hoshiarpur, Punjab
7/--/TDOTanda Urmar (3)  02:52+1:2902:54+1:292m2270.362239mNRUrmar Tanda, Punjab
8/--/JRCJalandhar Cantt. Junction (3)X  03:35+1:3003:40+1:355m32112.654239mNRNear Rama Mandi, Punjab
9/==/PGWPhagwara Junction (3)  03:58+1:3104:00+1:312m12128.975245mNRPhagwara, Punjab
10/==/PHRPhillaur Junction (3)X  04:18+1:3204:20+1:322m12151.420246mNRPhillaur, Punjab
11/==/LDHLudhiana Junction (7)X  05:00+1:1405:15+1:1715m52164.563246mNRLudhiana 141001, Punjab
12|--|QRPKila Raipur (1)  05:32+1:3005:34+1:302m12182.346262mNRDelhon Pakhowal Rd, Punjab
13|--|AHHAhmadgarh (1)  05:43 05:44+1:3005:45+1:352 1m12189.941256mNRAhmedgarh, Punjab
14|--|METMalerkotla (2)  06:13 06:14+1:3306:15+1:372 1m12209.853248mNRMalerkotla., Punjab
15|--|DUIDhuri Junction (4)X  06:35 06:34+1:3907:00 06:35+1:4625 1m--2226.624248mNRDhuri, Punjab
16|--|SAGSangrur (2)X  07:15+1:2907:17+1:312m12242.635239mNRSangrur, Punjab
17|--|SFMSunam (1)  07:39+1:2307:41+1:242m12255.471235mNRSunam, Punjab
18|--|LHALehra Gaga (1)  07:59+1:3608:01+1:362m12276.719227mNRSangrur, Punjab
19|-=|JHLJakhal Junction  08:55+1:0409:00+1:075m--2293.767225mNRJakhal, Haryana
20|==|TUNTohana (2)  09:11+1:0909:13+1:102m--2305.961232mNRTohana, Haryana
21|==|NRWNarwana Junction (4)X  09:38+1:0909:40+1:092m--2331.465235mNRWay to Narwana, Haryana
22|==|UCAUchana  09:54+1:0909:56+1:092m--2346.658225mNRDistrict Jind, Haryana
23|==|BZOBarsola  10:06+1:1210:08+1:152m--2356.239224mNRDistrict Jind, Haryana
24|==|JINDJind Junction (3)X  10:24 10:22+1:1010:27 10:24+1:103 2m--2365.364222mNRJind 126102, Haryana
25|==|JNAJulana  10:48+1:1310:50+1:132m--2391.072226mNRJulana, Haryana
26|==|ROKRohtak Junction (3)  11:18 11:16+1:1511:20 11:18+1:162m--2422.469220mNRRohtak, Haryana
27/==/BGZBahadurgarh  11:53+1:2211:55+1:222m--2462.629220mNRBahadurgarh, Haryana
28/==/SSBShakur Basti  12:36+1:1612:38+1:162m--2482.613216mNRPitampura, Delhi NCT
29/==/NDLSNew Delhi (16)X13:30+1:1714:15+1:1345m72493.428215mNRNew Delhi, Delhi NCT
30/==/NZMDelhi Hazrat Nizamuddin (7)X  14:33 14:31+1:2014:35 14:33+1:252m42500.842209mNRNew Delhi 110013, Delhi NCT
31/==/FDBFaridabad (4)  15:03+3615:05+392m42521.649206mNRold Faridabad, Haryana
32/==/AGCAgra Cantt. (6)X  18:30+5918:35+1:045m12688.596174mNCRAgra, Uttar Pradesh
33/==/DHODholpur Junction (3)  19:10 19:08+1:2019:12 19:10+1:202m22741.163177mNCRDholpur, Rajasthan
34/==/GWLGwalior Junction (4)X  20:12+1:1320:15+1:143m12806.573214mNCRGwalior, Madhya Pradesh
35/==/JHSJhansi Junction (7)  21:35+1:3121:45+1:3310m--2904.274259mNCRJhansi, Uttar Pradesh
36/==/BPLBhopal Junction (6)X  01:40+1:4301:50+1:4810m131196.055497mWCRBhopal, Madhya Pradesh
37/==/ETItarsi Junction (7)  03:30+1:3203:35+1:365m--31287.760329mWCRItarsi 461111, Madhya Pradesh
38/==/NGPNagpur Junction (8)X  08:30+1:5508:40+1:5810m231584.978314mCRNagpur 440001, Maharashtra
39/==/SEGMSewagram Junction (5)  09:39+2:1009:41+2:102m--31661.173279mCRWardha, Maharashtra
40/==/CDChandrapur Maharashtra (3)X  11:18+1:3311:20+1:332m--31779.724194mCRChandrapur 442401, Maharashtra
41/==/BPQBalharshah Junction (5)X  11:50 11:55+1:4112:00 12:10+1:3610 15m131793.584188mCRBallarpur. Ph : 07172 - 240341, Maharashtra
42/==/RDMRamagundam (3)  13:50 13:51+2:0613:52+2:072 1m231935.363170mSCRKarimnagar Dist. Ph : 08728 - 255237, Telangana
43/==/WLWarangal (3)  15:28+2:1315:33+2:105m132036.471271mSCRWarangal., Telangana
44/==/KMTKhammam (2)X  17:08 17:04+1:1117:10 17:06+1:102m132144.051118mSCRKhammam 507001, Telangana
45/==/BZAVijayawada Junction (10)  19:05+1:4919:20+1:5115m632244.47224mSCRVijayawada 520001, Andhra Pradesh
46/==/TELTenali Junction (5)X  19:46+2:0019:48+2:002m--32275.67716mSCRTel: 08644-227834, Andhra Pradesh
47/==/OGLOngole (3)X  21:11+2:0721:13+2:062m332382.69512mSCROngole, Andhra Pradesh
48/==/NLRNellore (4)  22:27+1:4622:29+1:462m332499.43221mSCRNellore, Andhra Pradesh
49/==/GDRGudur Junction (3)  23:41+1:4423:43+1:442m132537.96919mSCRGudur, Andhra Pradesh
50/==/RURenigunta Junction (5)X  00:55+2:1501:05+2:1610m--42621.340113mSCRChittoor District, Andhra Pradesh
51/==/TPTYTirupati Main (5)  01:20+2:2301:22+2:272m342631.261150mSCRChittoor Distt, Andhra Pradesh
52/--/CTOChittoor (3)X  02:33+2:3002:35+2:302m242703.027305mSCR517001., Andhra Pradesh
53/--/KPDKatpadi Junction (5)X  03:48+1:5403:50+1:542m342736.169213mSRVellore 632007, Tamil Nadu
54/==/JTJJolarpettai Junction (5)  05:03+2:0305:05+2:042m142820.080405mSRJolarpettai, Tamil Nadu
55/==/SASalem Junction (6)X  06:35+2:2206:40+2:225m--42940.243283mSRSalem, Tamil Nadu
56/==/EDErode Junction (4)X08:00 08:05+2:0308:15+2:3915 10m343001.579175mSRErode ph.no: 0424-2256111, Tamil Nadu
57/==/TUPTiruppur (2)X  08:58 08:53+2:4109:00 08:55+2:412m143051.850305mSRTiruppur. Ph:0421-2200450, Tamil Nadu
58/==/CBECoimbatore Main Junction (6)  09:55+2:2310:00+2:225m543102.244416mSRCoimbatore 641001, Tamil Nadu
59/==/PGTPalakkad Junction (4)X  11:15+2:1811:20+2:205m--43157.58384mSRPalghat Tel: 0491 2555231, Kerala
60/==/OTPOttappalam (2)  11:43+2:2011:45+2:202m--43189.34930mSROttapalam, Kerala
61/==/TCRThrissur (4)  12:38 12:39+2:1612:41+2:173 2m143233.4706mSRThrissur Tel: 0487 2423150, Kerala
62/==/AWYAluva (3)  13:28+2:2213:30+2:222m143288.03412mSRPh: 0484-2624141, Kerala
63/==/ERNErnakulam Town (North) (2)  14:00+2:1514:05+2:155m243304.8469mSRTel: 0484 2395198, Kerala
64%==%KTYMKottayam (3)X  15:20 15:23+2:2115:25+2:255 2m--43364.86715mSRTel: 0481 2563535, Kerala
65%==%TRVLTiruvalla (2)  15:48+2:2815:50+2:312m--43390.56827mSRPh: 0469-2601314, Kerala
66%==/CNGRChengannur (3)X  15:58+2:3816:00+2:382m143399.5616mSRPh: 0479-2452340, Kerala
67/==/KYJKayamkulam Junction (5)X  16:20+2:5716:22+2:572m--43419.74611mSRAlappuzha Ph;0479-2442042, Kerala
68/==/QLNKollam Junction (6)X  17:15+2:2717:20+2:265m143460.57616mSRKollam 0474-2746194, Kerala
69/==/TVPThiruvananthapuram Pettah (2)O  18:08 18:09-18:10-2 1m--43522.8318mSRTrivandrum Ph: 04712470181, Kerala
70/==/TVCTrivandrum Central (5)X  19:00+1:5919:05+2:015m--43525.25812mSRThiruvananthapuram 695001, Kerala
71/--/KZTKulitturai (2)  19:43 19:44+2:3119:45+2:392 1m--43563.12829mSRMarthandam, Tamil Nadu
72/--/NCJNagercoil Junction (4)  20:55+1:5421:00+1:545m243596.23122mSRNagercoil-629002, Tamil Nadu
73/--/CAPEKanniyakumari (3)•  21:30+1:57-343611.8-38mSRKanyakumari, Tamil Nadu
Scroll to Top
Scroll to Bottom